Year,Month,Day,Hour,Minute,Value (Times are PST for temperature in C)
2007,07,15,00,00,15.70
2007,07,15,00,01,15.70
2007,07,15,00,02,15.70
2007,07,15,00,03,15.70
2007,07,15,00,04,15.70
2007,07,15,00,05,15.80
2007,07,15,00,06,15.80
2007,07,15,00,07,15.80
2007,07,15,00,08,15.90
2007,07,15,00,09,15.90
2007,07,15,00,10,16.00
2007,07,15,00,11,16.00
2007,07,15,00,12,16.10
2007,07,15,00,13,16.10
2007,07,15,01,02,17.40
2007,07,15,01,03,17.40
2007,07,15,01,04,17.40
2007,07,15,01,05,17.40
2007,07,15,01,06,17.40
2007,07,15,01,07,17.40
2007,07,15,01,08,17.50
2007,07,15,01,09,17.50
2007,07,15,01,10,17.60
2007,07,15,01,11,17.60
2007,07,15,01,12,17.60
2007,07,15,01,13,17.60
2007,07,15,01,14,17.70
2007,07,15,01,15,17.70
2007,07,15,01,16,17.70
2007,07,15,01,17,17.70
2007,07,15,01,18,17.70
2007,07,15,01,19,17.70
2007,07,15,01,20,17.80
2007,07,15,01,21,17.80
2007,07,15,01,22,17.80
2007,07,15,01,23,17.90
2007,07,15,01,24,18.00
2007,07,15,01,25,18.00
2007,07,15,01,26,18.10
2007,07,15,01,27,18.20
2007,07,15,01,28,18.30
2007,07,15,01,29,18.30
2007,07,15,01,30,18.40
2007,07,15,01,31,18.50
2007,07,15,01,32,18.60
2007,07,15,01,33,18.60
2007,07,15,01,34,18.70
2007,07,15,01,35,18.70
2007,07,15,01,36,18.70
2007,07,15,01,37,18.80
2007,07,15,01,38,18.80
2007,07,15,01,39,18.80
2007,07,15,01,40,18.80
2007,07,15,01,41,18.90
2007,07,15,01,42,18.90
2007,07,15,01,43,18.90
2007,07,15,01,44,18.90
2007,07,15,01,45,18.90
2007,07,15,01,46,18.90
2007,07,15,01,47,19.00
2007,07,15,01,48,19.00
2007,07,15,01,49,19.00
2007,07,15,01,50,19.00
2007,07,15,01,51,19.00
2007,07,15,01,52,19.00
2007,07,15,01,53,19.00
2007,07,15,01,54,19.00
2007,07,15,01,55,19.00
2007,07,15,01,56,19.00
2007,07,15,01,57,18.90
2007,07,15,01,58,18.90
2007,07,15,01,59,18.90
2007,07,15,02,00,18.90
2007,07,15,02,01,18.90
2007,07,15,02,02,18.90
2007,07,15,02,03,18.80
2007,07,15,02,04,18.80
2007,07,15,02,05,18.80
2007,07,15,02,06,18.80
2007,07,15,02,07,18.80
2007,07,15,02,08,18.80
2007,07,15,02,09,18.80
2007,07,15,02,10,18.70
2007,07,15,02,11,18.70
2007,07,15,02,12,18.70
2007,07,15,02,13,18.70
2007,07,15,02,14,18.70
2007,07,15,02,15,18.70
2007,07,15,02,16,18.70
2007,07,15,02,17,18.60
2007,07,15,02,18,18.60
2007,07,15,02,19,18.60
2007,07,15,02,20,18.60
2007,07,15,02,21,18.50
2007,07,15,02,22,18.40
2007,07,15,02,23,18.30
2007,07,15,02,24,18.20
2007,07,15,02,25,18.10
2007,07,15,02,26,17.90
2007,07,15,02,27,17.80
2007,07,15,02,28,17.70
2007,07,15,02,29,17.60
2007,07,15,02,30,17.50
2007,07,15,02,31,17.30
2007,07,15,02,32,17.20
2007,07,15,02,33,17.10
2007,07,15,02,34,17.00
2007,07,15,02,35,17.00
2007,07,15,02,36,16.90
2007,07,15,02,37,16.80
2007,07,15,02,38,16.80
2007,07,15,02,39,16.80
2007,07,15,02,40,16.70
2007,07,15,02,41,16.70
2007,07,15,02,42,16.70
2007,07,15,02,43,16.60
2007,07,15,02,44,16.60
2007,07,15,02,45,16.60
2007,07,15,02,46,16.60
2007,07,15,02,47,16.60
2007,07,15,02,48,16.60
2007,07,15,02,49,16.60
2007,07,15,02,50,16.60
2007,07,15,02,51,16.60
2007,07,15,02,52,16.70
2007,07,15,02,53,16.70
2007,07,15,02,54,16.70
2007,07,15,02,55,16.70
2007,07,15,02,56,16.70
2007,07,15,02,57,16.70
2007,07,15,02,58,16.70
2007,07,15,02,59,16.70
2007,07,15,03,00,16.70
2007,07,15,03,01,16.70
2007,07,15,03,02,16.70
2007,07,15,03,03,16.70
2007,07,15,03,04,16.70
2007,07,15,03,05,16.70
2007,07,15,03,06,16.70
2007,07,15,03,07,16.70
2007,07,15,03,08,16.70
2007,07,15,03,09,16.70
2007,07,15,03,10,16.70
2007,07,15,03,11,16.70
2007,07,15,03,12,16.70
2007,07,15,03,13,16.70
2007,07,15,03,14,16.70
2007,07,15,03,15,16.80
2007,07,15,03,16,16.80
2007,07,15,03,17,16.90
2007,07,15,03,18,16.90
2007,07,15,03,19,16.90
2007,07,15,03,20,17.00
2007,07,15,03,21,17.00
2007,07,15,03,22,17.10
2007,07,15,03,23,17.10
2007,07,15,03,24,17.20
2007,07,15,03,25,17.20
2007,07,15,03,26,17.20
2007,07,15,03,27,17.30
2007,07,15,03,28,17.30
2007,07,15,03,29,17.30
2007,07,15,03,30,17.30
2007,07,15,03,31,17.30
2007,07,15,03,32,17.30
2007,07,15,03,33,17.30
2007,07,15,03,34,17.40
2007,07,15,03,35,17.40
2007,07,15,03,36,17.40
2007,07,15,03,37,17.40
2007,07,15,03,38,17.40
2007,07,15,03,39,17.40
2007,07,15,03,40,17.40
2007,07,15,03,41,17.40
2007,07,15,03,42,17.40
2007,07,15,03,43,17.40
2007,07,15,03,44,17.40
2007,07,15,03,45,17.40
2007,07,15,03,46,17.30
2007,07,15,03,47,17.30
2007,07,15,03,48,17.30
2007,07,15,03,49,17.30
2007,07,15,03,50,17.20
2007,07,15,03,51,17.20
2007,07,15,03,52,17.20
2007,07,15,03,53,17.10
2007,07,15,03,54,17.10
2007,07,15,03,55,17.00
2007,07,15,03,56,17.00
2007,07,15,03,57,16.90
2007,07,15,03,58,16.90
2007,07,15,03,59,16.90
2007,07,15,04,00,16.80
2007,07,15,04,01,16.80
2007,07,15,04,02,16.80
2007,07,15,04,03,16.80
2007,07,15,04,04,16.80
2007,07,15,04,05,16.70
2007,07,15,04,06,16.70
2007,07,15,04,07,16.70
2007,07,15,04,08,16.70
2007,07,15,04,09,16.70
2007,07,15,04,10,16.70
2007,07,15,04,11,16.70
2007,07,15,04,12,16.70
2007,07,15,04,13,16.70
2007,07,15,04,14,16.70
2007,07,15,04,15,16.70
2007,07,15,04,16,16.70
2007,07,15,04,17,16.70
2007,07,15,04,18,16.70
2007,07,15,04,19,16.70
2007,07,15,04,20,16.70
2007,07,15,04,21,16.70
2007,07,15,04,22,16.70
2007,07,15,04,23,16.70
2007,07,15,04,24,16.70
2007,07,15,04,25,16.70
2007,07,15,04,26,16.80
2007,07,15,04,27,16.80
2007,07,15,04,28,16.80
2007,07,15,04,29,16.80
2007,07,15,04,30,16.80
2007,07,15,04,31,16.90
2007,07,15,04,32,16.90
2007,07,15,04,33,16.90
2007,07,15,04,34,16.90
2007,07,15,04,35,16.90
2007,07,15,04,36,16.90
2007,07,15,04,37,16.90
2007,07,15,04,38,16.90
2007,07,15,04,39,16.90
2007,07,15,04,40,16.90
2007,07,15,04,41,16.90
2007,07,15,04,42,16.90
2007,07,15,04,43,17.00
2007,07,15,04,44,17.00
2007,07,15,04,45,17.00
2007,07,15,04,46,17.10
2007,07,15,04,47,17.10
2007,07,15,04,48,17.10
2007,07,15,04,49,17.20
2007,07,15,04,50,17.20
2007,07,15,04,51,17.20
2007,07,15,04,52,17.20
2007,07,15,04,53,17.30
2007,07,15,04,54,17.30
2007,07,15,04,55,17.30
2007,07,15,04,56,17.30
2007,07,15,04,57,17.30
2007,07,15,04,58,17.30
2007,07,15,04,59,17.40
2007,07,15,05,00,17.40
2007,07,15,05,01,17.40
2007,07,15,05,02,17.40
2007,07,15,05,03,17.40
2007,07,15,05,04,17.40
2007,07,15,05,05,17.50
2007,07,15,05,06,17.50
2007,07,15,05,07,17.50
2007,07,15,05,08,17.50
2007,07,15,05,09,17.50
2007,07,15,05,10,17.50
2007,07,15,05,11,17.40
2007,07,15,05,12,17.40
2007,07,15,05,13,17.30
2007,07,15,05,14,17.30
2007,07,15,05,15,17.20
2007,07,15,05,16,17.20
2007,07,15,05,17,17.10
2007,07,15,05,18,17.10
2007,07,15,05,19,17.00
2007,07,15,05,20,16.90
2007,07,15,05,21,16.90
2007,07,15,05,22,16.90
2007,07,15,05,23,16.80
2007,07,15,05,24,16.80
2007,07,15,05,25,16.80
2007,07,15,05,26,16.80
2007,07,15,05,27,16.80
2007,07,15,05,28,16.80
2007,07,15,05,29,16.80
2007,07,15,05,30,16.80
2007,07,15,05,31,16.80
2007,07,15,05,32,16.80
2007,07,15,05,33,16.80
2007,07,15,05,34,16.80
2007,07,15,05,35,16.90
2007,07,15,05,36,16.90
2007,07,15,05,37,17.00
2007,07,15,05,38,17.10
2007,07,15,05,39,17.10
2007,07,15,05,40,17.20
2007,07,15,05,41,17.30
2007,07,15,05,42,17.40
2007,07,15,05,43,17.50
2007,07,15,05,44,17.50
2007,07,15,05,45,17.60
2007,07,15,05,46,17.70
2007,07,15,05,47,17.80
2007,07,15,05,48,17.80
2007,07,15,05,49,17.80
2007,07,15,05,50,17.80
2007,07,15,05,51,17.80
2007,07,15,05,52,17.70
2007,07,15,05,53,17.70
2007,07,15,05,54,17.70
2007,07,15,05,55,17.70
2007,07,15,05,56,17.70
2007,07,15,05,57,17.70
2007,07,15,05,58,17.60
2007,07,15,05,59,17.60
2007,07,15,06,00,17.50
2007,07,15,06,01,17.50
2007,07,15,06,02,17.40
2007,07,15,06,03,17.30
2007,07,15,06,04,17.20
2007,07,15,06,05,17.20
2007,07,15,06,06,17.10
2007,07,15,06,07,17.10
2007,07,15,06,08,17.10
2007,07,15,06,09,17.10
2007,07,15,06,10,17.10
2007,07,15,06,11,17.10
2007,07,15,06,12,17.10
2007,07,15,06,13,17.20
2007,07,15,06,14,17.20
2007,07,15,06,15,17.20
2007,07,15,06,16,17.20
2007,07,15,06,17,17.30
2007,07,15,06,18,17.30
2007,07,15,06,19,17.40
2007,07,15,06,20,17.50
2007,07,15,06,21,17.60
2007,07,15,06,22,17.70
2007,07,15,06,23,17.70
2007,07,15,06,24,17.80
2007,07,15,06,25,17.80
2007,07,15,06,26,17.90
2007,07,15,06,27,18.00
2007,07,15,06,28,18.10
2007,07,15,06,29,18.20
2007,07,15,06,30,18.30
2007,07,15,06,31,18.30
2007,07,15,06,32,18.40
2007,07,15,06,33,18.40
2007,07,15,06,34,18.40
2007,07,15,06,35,18.40
2007,07,15,06,36,18.30
2007,07,15,06,37,18.20
2007,07,15,06,38,18.00
2007,07,15,06,39,17.90
2007,07,15,06,40,17.80
2007,07,15,06,41,17.70
2007,07,15,06,42,17.60
2007,07,15,06,43,17.50
2007,07,15,06,44,17.40
2007,07,15,06,45,17.40
2007,07,15,06,46,17.30
2007,07,15,06,47,17.30
2007,07,15,06,48,17.30
2007,07,15,06,49,17.30
2007,07,15,06,50,17.20
2007,07,15,06,51,17.20
2007,07,15,06,52,17.20
2007,07,15,06,53,17.20
2007,07,15,06,54,17.20
2007,07,15,06,55,17.20
2007,07,15,06,56,17.20
2007,07,15,06,57,17.20
2007,07,15,06,58,17.30
2007,07,15,06,59,17.30
2007,07,15,07,00,17.30
2007,07,15,07,01,17.30
2007,07,15,07,02,17.40
2007,07,15,07,03,17.40
2007,07,15,07,04,17.50
2007,07,15,07,05,17.50
2007,07,15,07,06,17.60
2007,07,15,07,07,17.60
2007,07,15,07,08,17.70
2007,07,15,07,09,17.80
2007,07,15,07,10,17.80
2007,07,15,07,11,17.90
2007,07,15,07,12,18.00
2007,07,15,07,13,18.10
2007,07,15,07,14,18.20
2007,07,15,07,15,18.20
2007,07,15,07,16,18.30
2007,07,15,07,17,18.40
2007,07,15,07,18,18.60
2007,07,15,07,19,18.70
2007,07,15,07,20,18.80
2007,07,15,07,21,18.90
2007,07,15,07,22,19.00
2007,07,15,07,23,19.10
2007,07,15,07,24,19.20
2007,07,15,07,25,19.30
2007,07,15,07,26,19.40
2007,07,15,07,27,19.50
2007,07,15,07,28,19.60
2007,07,15,07,29,19.60
2007,07,15,07,30,19.70
2007,07,15,07,31,19.80
2007,07,15,07,32,19.90
2007,07,15,07,33,20.00
2007,07,15,07,34,20.00
2007,07,15,07,35,20.10
2007,07,15,07,36,20.20
2007,07,15,07,37,20.30
2007,07,15,07,38,20.30
2007,07,15,07,39,20.30
2007,07,15,07,40,20.40
2007,07,15,07,41,20.40
2007,07,15,07,42,20.40
2007,07,15,07,43,20.40
2007,07,15,07,44,20.40
2007,07,15,07,45,20.40
2007,07,15,07,46,20.40
2007,07,15,07,47,20.40
2007,07,15,07,48,20.40
2007,07,15,07,49,20.40
2007,07,15,07,50,20.40
2007,07,15,07,51,20.40
2007,07,15,07,52,20.40
2007,07,15,07,53,20.40
2007,07,15,07,54,20.40
2007,07,15,07,55,20.40
2007,07,15,07,56,20.40
2007,07,15,07,57,20.40
2007,07,15,07,58,20.40
2007,07,15,07,59,20.40
2007,07,15,08,00,20.40
2007,07,15,08,01,20.40
2007,07,15,08,02,20.40
2007,07,15,08,03,20.50
2007,07,15,08,04,20.50
2007,07,15,08,05,20.50
2007,07,15,08,06,20.60
2007,07,15,08,07,20.60
2007,07,15,08,08,20.60
2007,07,15,08,09,20.60
2007,07,15,08,10,20.60
2007,07,15,08,11,20.60
2007,07,15,08,12,20.60
2007,07,15,08,13,20.70
2007,07,15,08,14,20.70
2007,07,15,08,15,20.70
2007,07,15,08,16,20.70
2007,07,15,08,17,20.80
2007,07,15,08,18,20.80
2007,07,15,08,19,20.90
2007,07,15,08,20,21.00
2007,07,15,08,21,21.10
2007,07,15,08,22,21.10
2007,07,15,08,23,21.20
2007,07,15,08,24,21.20
2007,07,15,08,25,21.20
2007,07,15,08,26,21.30
2007,07,15,08,27,21.30
2007,07,15,08,28,21.30
2007,07,15,08,29,21.30
2007,07,15,08,30,21.30
2007,07,15,08,31,21.30
2007,07,15,08,32,21.30
2007,07,15,08,33,21.30
2007,07,15,08,34,21.30
2007,07,15,08,35,21.40
2007,07,15,08,36,21.50
2007,07,15,08,37,21.50
2007,07,15,08,38,21.60
2007,07,15,08,39,21.60
2007,07,15,08,40,21.70
2007,07,15,08,41,21.70
2007,07,15,08,42,21.80
2007,07,15,08,43,21.80
2007,07,15,08,44,21.90
2007,07,15,08,45,22.00
2007,07,15,08,46,22.10
2007,07,15,08,47,22.20
2007,07,15,08,48,22.20
2007,07,15,08,49,22.30
2007,07,15,08,50,22.40
2007,07,15,08,51,22.40
2007,07,15,08,52,22.50
2007,07,15,08,53,22.60
2007,07,15,08,54,22.60
2007,07,15,08,55,22.60
2007,07,15,08,56,22.70
2007,07,15,08,57,22.70
2007,07,15,08,58,22.70
2007,07,15,08,59,22.60
2007,07,15,09,00,22.60
2007,07,15,09,01,22.60
2007,07,15,09,02,22.60
2007,07,15,09,03,22.70
2007,07,15,09,04,22.70
2007,07,15,09,05,22.80
2007,07,15,09,06,22.80
2007,07,15,09,07,22.90
2007,07,15,09,08,23.10
2007,07,15,09,09,23.20
2007,07,15,09,10,23.30
2007,07,15,09,11,23.30
2007,07,15,09,12,23.40
2007,07,15,09,13,23.30
2007,07,15,09,14,23.20
2007,07,15,09,15,23.10
2007,07,15,09,16,23.10
2007,07,15,09,17,23.10
2007,07,15,09,18,23.10
2007,07,15,09,19,23.00
2007,07,15,09,20,23.00
2007,07,15,09,21,23.00
2007,07,15,09,22,23.00
2007,07,15,09,23,23.00
2007,07,15,09,24,22.90
2007,07,15,09,25,22.90
2007,07,15,09,26,22.80
2007,07,15,09,27,22.80
2007,07,15,09,28,22.70
2007,07,15,09,29,22.70
2007,07,15,09,30,22.60
2007,07,15,09,31,22.50
2007,07,15,09,32,22.40
2007,07,15,09,33,22.40
2007,07,15,09,34,22.30
2007,07,15,09,35,22.20
2007,07,15,09,36,22.00
2007,07,15,09,37,21.80
2007,07,15,09,38,21.70
2007,07,15,09,39,21.50
2007,07,15,09,40,21.20
2007,07,15,09,41,20.90
2007,07,15,09,42,20.70
2007,07,15,09,43,20.40
2007,07,15,09,44,20.30
2007,07,15,09,45,20.10
2007,07,15,09,46,19.90
2007,07,15,09,47,19.70
2007,07,15,09,48,19.60
2007,07,15,09,49,19.50
2007,07,15,09,50,19.30
2007,07,15,09,51,19.20
2007,07,15,09,52,19.00
2007,07,15,09,53,18.70
2007,07,15,09,54,18.50
2007,07,15,09,55,18.40
2007,07,15,09,56,18.40
2007,07,15,09,57,18.40
2007,07,15,09,58,18.30
2007,07,15,09,59,18.30
2007,07,15,10,00,18.20
2007,07,15,10,01,18.10
2007,07,15,10,02,17.90
2007,07,15,10,03,17.70
2007,07,15,10,04,17.60
2007,07,15,10,05,17.40
2007,07,15,10,06,17.10
2007,07,15,10,07,16.70
2007,07,15,10,08,16.40
2007,07,15,10,09,16.30
2007,07,15,10,10,16.30
2007,07,15,10,11,16.30
2007,07,15,10,12,16.30
2007,07,15,10,13,16.30
2007,07,15,10,14,16.20
2007,07,15,10,15,16.10
2007,07,15,10,16,16.00
2007,07,15,10,17,16.00
2007,07,15,10,18,15.90
2007,07,15,10,19,15.90
2007,07,15,10,20,16.00
2007,07,15,10,21,16.00
2007,07,15,10,22,16.10
2007,07,15,10,23,16.10
2007,07,15,10,24,16.10
2007,07,15,10,25,16.10
2007,07,15,10,26,16.10
2007,07,15,10,27,16.10
2007,07,15,10,28,16.10
2007,07,15,10,29,16.10
2007,07,15,10,30,16.00
2007,07,15,10,31,15.90
2007,07,15,10,32,15.90
2007,07,15,10,33,15.90
2007,07,15,10,34,16.00
2007,07,15,10,35,16.00
2007,07,15,10,36,16.10
2007,07,15,10,37,16.10
2007,07,15,10,38,16.20
2007,07,15,10,39,16.30
2007,07,15,10,40,16.40
2007,07,15,10,41,16.60
2007,07,15,10,42,16.80
2007,07,15,10,43,16.80
2007,07,15,10,44,16.90
2007,07,15,10,45,17.00
2007,07,15,10,46,17.00
2007,07,15,10,47,17.10
2007,07,15,10,48,17.20
2007,07,15,10,49,17.20
2007,07,15,10,50,17.20
2007,07,15,10,51,17.20
2007,07,15,10,52,17.30
2007,07,15,10,53,17.30
2007,07,15,10,54,17.30
2007,07,15,10,55,17.30
2007,07,15,10,56,17.30
2007,07,15,10,57,17.30
2007,07,15,10,58,17.20
2007,07,15,10,59,17.10
2007,07,15,11,00,17.00
2007,07,15,11,01,16.90
2007,07,15,11,02,16.70
2007,07,15,11,03,16.60
2007,07,15,11,04,16.50
2007,07,15,11,05,16.40
2007,07,15,11,06,16.30
2007,07,15,11,07,16.30
2007,07,15,11,08,16.30
2007,07,15,11,09,16.30
2007,07,15,11,10,16.30
2007,07,15,11,11,16.20
2007,07,15,11,12,16.00
2007,07,15,11,13,15.80
2007,07,15,11,14,15.70
2007,07,15,11,15,15.70
2007,07,15,11,16,15.70
2007,07,15,11,17,15.90
2007,07,15,11,18,16.00
2007,07,15,11,19,16.10
2007,07,15,11,20,16.20
2007,07,15,11,21,16.20
2007,07,15,11,22,16.30
2007,07,15,11,23,16.50
2007,07,15,11,24,16.70
2007,07,15,11,25,16.80
2007,07,15,11,26,16.90
2007,07,15,11,27,17.00
2007,07,15,11,28,17.00
2007,07,15,11,29,17.10
2007,07,15,11,30,17.10
2007,07,15,11,31,17.10
2007,07,15,11,32,17.00
2007,07,15,11,33,17.00
2007,07,15,11,34,16.90
2007,07,15,11,35,16.70
2007,07,15,11,36,16.60
2007,07,15,11,37,16.60
2007,07,15,11,38,16.60
2007,07,15,11,39,16.70
2007,07,15,11,40,16.90
2007,07,15,11,41,16.90
2007,07,15,11,42,16.90
2007,07,15,11,43,16.90
2007,07,15,11,44,16.90
2007,07,15,11,45,17.00
2007,07,15,11,46,17.00
2007,07,15,11,47,17.10
2007,07,15,11,48,17.10
2007,07,15,11,49,16.90
2007,07,15,11,50,16.80
2007,07,15,11,51,16.70
2007,07,15,11,52,16.60
2007,07,15,11,53,16.70
2007,07,15,11,54,16.70
2007,07,15,11,55,16.80
2007,07,15,11,56,16.90
2007,07,15,11,57,17.10
2007,07,15,11,58,17.20
2007,07,15,11,59,17.30
2007,07,15,12,00,17.20
2007,07,15,12,01,17.20
2007,07,15,12,02,17.20
2007,07,15,12,03,17.30
2007,07,15,12,04,17.40
2007,07,15,12,05,17.50
2007,07,15,12,06,17.50
2007,07,15,12,07,17.50
2007,07,15,12,08,17.70
2007,07,15,12,09,17.80
2007,07,15,12,10,17.80
2007,07,15,12,11,18.00
2007,07,15,12,12,18.10
2007,07,15,12,13,18.20
2007,07,15,12,14,18.30
2007,07,15,12,15,18.40
2007,07,15,12,16,18.50
2007,07,15,12,17,18.60
2007,07,15,12,18,18.70
2007,07,15,12,19,18.70
2007,07,15,12,20,18.60
2007,07,15,12,21,18.20
2007,07,15,12,22,17.80
2007,07,15,12,23,17.50
2007,07,15,12,24,17.40
2007,07,15,12,25,17.50
2007,07,15,12,26,17.60
2007,07,15,12,27,17.60
2007,07,15,12,28,17.70
2007,07,15,12,29,17.70
2007,07,15,12,30,17.80
2007,07,15,12,31,17.90
2007,07,15,12,32,18.00
2007,07,15,12,33,18.00
2007,07,15,12,34,18.10
2007,07,15,12,35,18.20
2007,07,15,12,36,18.30
2007,07,15,12,37,18.40
2007,07,15,12,38,18.40
2007,07,15,12,39,18.40
2007,07,15,12,40,18.40
2007,07,15,12,41,18.40
2007,07,15,12,42,18.40
2007,07,15,12,43,18.40
2007,07,15,12,44,18.40
2007,07,15,12,45,18.50
2007,07,15,12,46,18.60
2007,07,15,12,47,18.70
2007,07,15,12,48,18.90
2007,07,15,12,49,19.10
2007,07,15,12,50,19.40
2007,07,15,12,51,19.80
2007,07,15,12,52,20.20
2007,07,15,12,53,20.50
2007,07,15,12,54,20.90
2007,07,15,12,55,21.20
2007,07,15,12,56,21.50
2007,07,15,12,57,21.70
2007,07,15,12,58,21.90
2007,07,15,12,59,22.10
2007,07,15,13,00,22.20
2007,07,15,13,01,22.30
2007,07,15,13,02,22.40
2007,07,15,13,03,22.40
2007,07,15,13,04,22.50
2007,07,15,13,05,22.50
2007,07,15,13,06,22.60
2007,07,15,13,07,22.60
2007,07,15,13,08,22.60
2007,07,15,13,09,22.70
2007,07,15,13,10,22.70
2007,07,15,13,11,22.80
2007,07,15,13,12,23.00
2007,07,15,13,13,23.10
2007,07,15,13,14,23.30
2007,07,15,13,15,23.30
2007,07,15,13,16,23.30
2007,07,15,13,17,23.30
2007,07,15,13,18,23.20
2007,07,15,13,19,23.20
2007,07,15,13,20,23.30
2007,07,15,13,21,23.40
2007,07,15,13,22,23.60
2007,07,15,13,23,23.70
2007,07,15,13,24,23.90
2007,07,15,13,25,24.00
2007,07,15,13,26,24.00
2007,07,15,13,27,23.90
2007,07,15,13,28,24.00
2007,07,15,13,29,24.00
2007,07,15,13,30,23.90
2007,07,15,13,31,24.00
2007,07,15,13,32,23.90
2007,07,15,13,33,23.80
2007,07,15,13,34,23.60
2007,07,15,13,35,23.50
2007,07,15,13,36,23.40
2007,07,15,13,37,23.30
2007,07,15,13,38,23.30
2007,07,15,13,39,23.30
2007,07,15,13,40,23.10
2007,07,15,13,41,23.00
2007,07,15,13,42,22.90
2007,07,15,13,43,22.90
2007,07,15,13,44,22.80
2007,07,15,13,45,22.80
2007,07,15,13,46,22.90
2007,07,15,13,47,23.00
2007,07,15,13,48,23.10
2007,07,15,13,49,23.20
2007,07,15,13,50,23.20
2007,07,15,13,51,23.20
2007,07,15,13,52,23.30
2007,07,15,13,53,23.30
2007,07,15,13,54,23.30
2007,07,15,13,55,23.30
2007,07,15,13,56,23.30
2007,07,15,13,57,23.30
2007,07,15,13,58,23.30
2007,07,15,13,59,23.30
2007,07,15,14,00,23.30
2007,07,15,14,01,23.30
2007,07,15,14,02,23.30
2007,07,15,14,03,23.30
2007,07,15,14,04,23.20
2007,07,15,14,05,23.20
2007,07,15,14,06,23.10
2007,07,15,14,07,23.00
2007,07,15,14,08,23.00
2007,07,15,14,09,22.90
2007,07,15,14,10,22.90
2007,07,15,14,11,22.90
2007,07,15,14,12,22.80
2007,07,15,14,13,22.70
2007,07,15,14,14,22.70
2007,07,15,14,15,22.60
2007,07,15,14,16,22.60
2007,07,15,14,17,22.60
2007,07,15,14,18,22.50
2007,07,15,14,19,22.40
2007,07,15,14,20,22.30
2007,07,15,14,21,22.30
2007,07,15,14,22,22.30
2007,07,15,14,23,22.30
2007,07,15,14,24,22.30
2007,07,15,14,25,22.30
2007,07,15,14,26,22.30
2007,07,15,14,27,22.30
2007,07,15,14,28,22.30
2007,07,15,14,29,22.20
2007,07,15,14,30,22.20
2007,07,15,14,31,22.20
2007,07,15,14,32,22.10
2007,07,15,14,33,22.10
2007,07,15,14,34,22.10
2007,07,15,14,35,22.10
2007,07,15,14,36,22.20
2007,07,15,14,37,22.20
2007,07,15,14,38,22.20
2007,07,15,14,39,22.20
2007,07,15,14,40,22.30
2007,07,15,14,41,22.30
2007,07,15,14,42,22.30
2007,07,15,14,43,22.30
2007,07,15,14,44,22.40
2007,07,15,14,45,22.40
2007,07,15,14,46,22.40
2007,07,15,14,47,22.30
2007,07,15,14,48,22.30
2007,07,15,14,49,22.30
2007,07,15,14,50,22.20
2007,07,15,14,51,22.20
2007,07,15,14,52,22.20
2007,07,15,14,53,22.20
2007,07,15,14,54,22.20
2007,07,15,14,55,22.20
2007,07,15,14,56,22.10
2007,07,15,14,57,22.10
2007,07,15,14,58,22.00
2007,07,15,14,59,22.00
2007,07,15,15,00,22.00
2007,07,15,15,01,21.90
2007,07,15,15,02,21.90
2007,07,15,15,03,21.90
2007,07,15,15,04,21.90
2007,07,15,15,05,21.90
2007,07,15,15,06,21.90
2007,07,15,15,07,21.80
2007,07,15,15,08,21.80
2007,07,15,15,09,21.80
2007,07,15,15,10,21.80
2007,07,15,15,11,21.90
2007,07,15,15,12,21.90
2007,07,15,15,13,22.00
2007,07,15,15,14,22.00
2007,07,15,15,15,22.00
2007,07,15,15,16,21.90
2007,07,15,15,17,22.00
2007,07,15,15,18,22.00
2007,07,15,15,19,22.10
2007,07,15,15,20,22.10
2007,07,15,15,21,22.10
2007,07,15,15,22,22.10
2007,07,15,15,23,22.10
2007,07,15,15,24,22.20
2007,07,15,15,25,22.20
2007,07,15,15,26,22.20
2007,07,15,15,27,22.30
2007,07,15,15,28,22.30
2007,07,15,15,29,22.40
2007,07,15,15,30,22.50
2007,07,15,15,31,22.50
2007,07,15,15,32,22.60
2007,07,15,15,33,22.70
2007,07,15,15,34,22.80
2007,07,15,15,35,22.80
2007,07,15,15,36,22.80
2007,07,15,15,37,22.90
2007,07,15,15,38,22.90
2007,07,15,15,39,22.90
2007,07,15,15,40,22.90
2007,07,15,15,41,22.80
2007,07,15,15,42,22.80
2007,07,15,15,43,22.80
2007,07,15,15,44,22.70
2007,07,15,15,45,22.70
2007,07,15,15,46,22.70
2007,07,15,15,47,22.70
2007,07,15,15,48,22.70
2007,07,15,15,49,22.80
2007,07,15,15,50,22.80
2007,07,15,15,51,22.90
2007,07,15,15,52,22.90
2007,07,15,15,53,23.00
2007,07,15,15,54,23.00
2007,07,15,15,55,23.00
2007,07,15,15,56,23.00
2007,07,15,15,57,23.00
2007,07,15,15,58,23.00
2007,07,15,15,59,23.10
2007,07,15,16,00,23.10
2007,07,15,16,01,23.10
2007,07,15,16,02,23.20
2007,07,15,16,03,23.30
2007,07,15,16,04,23.50
2007,07,15,16,05,23.60
2007,07,15,16,06,23.70
2007,07,15,16,07,23.80
2007,07,15,16,08,23.90
2007,07,15,16,09,23.90
2007,07,15,16,10,23.90
2007,07,15,16,11,23.90
2007,07,15,16,12,23.90
2007,07,15,16,13,23.90
2007,07,15,16,14,23.90
2007,07,15,16,15,23.80
2007,07,15,16,16,23.70
2007,07,15,16,17,23.70
2007,07,15,16,18,23.70
2007,07,15,16,19,23.70
2007,07,15,16,20,23.70
2007,07,15,16,21,23.80
2007,07,15,16,22,23.80
2007,07,15,16,23,23.90
2007,07,15,16,24,24.00
2007,07,15,16,25,24.10
2007,07,15,16,26,24.10
2007,07,15,16,27,24.10
2007,07,15,16,28,24.10
2007,07,15,16,29,24.20
2007,07,15,16,30,24.20
2007,07,15,16,31,24.10
2007,07,15,16,32,24.20
2007,07,15,16,33,24.20
2007,07,15,16,34,24.20
2007,07,15,16,35,24.20
2007,07,15,16,36,24.20
2007,07,15,16,37,24.30
2007,07,15,16,38,24.30
2007,07,15,16,39,24.30
2007,07,15,16,40,24.40
2007,07,15,16,41,24.40
2007,07,15,16,42,24.40
2007,07,15,16,43,24.30
2007,07,15,16,44,24.30
2007,07,15,16,45,24.30
2007,07,15,16,46,24.20
2007,07,15,16,47,24.10
2007,07,15,16,48,24.00
2007,07,15,16,49,24.00
2007,07,15,16,50,23.90
2007,07,15,16,51,23.90
2007,07,15,16,52,24.00
2007,07,15,16,53,24.00
2007,07,15,16,54,24.10
2007,07,15,16,55,24.10
2007,07,15,16,56,24.10
2007,07,15,16,57,24.10
2007,07,15,16,58,24.10
2007,07,15,16,59,24.20
2007,07,15,17,00,24.20
2007,07,15,17,01,24.20
2007,07,15,17,02,24.10
2007,07,15,17,03,24.10
2007,07,15,17,04,24.00
2007,07,15,17,05,24.00
2007,07,15,17,06,24.00
2007,07,15,17,07,24.00
2007,07,15,17,08,24.00
2007,07,15,17,09,24.00
2007,07,15,17,10,24.00
2007,07,15,17,11,23.90
2007,07,15,17,12,23.90
2007,07,15,17,13,23.90
2007,07,15,17,14,24.00
2007,07,15,17,15,24.10
2007,07,15,17,16,24.10
2007,07,15,17,17,24.10
2007,07,15,17,18,24.10
2007,07,15,17,19,24.10
2007,07,15,17,20,24.10
2007,07,15,17,21,24.10
2007,07,15,17,22,24.10
2007,07,15,17,23,24.20
2007,07,15,17,24,24.30
2007,07,15,17,25,24.40
2007,07,15,17,26,24.50
2007,07,15,17,27,24.60
2007,07,15,17,28,24.50
2007,07,15,17,29,24.40
2007,07,15,17,30,24.30
2007,07,15,17,31,24.30
2007,07,15,17,32,24.20
2007,07,15,17,33,24.10
2007,07,15,17,34,24.00
2007,07,15,17,35,23.90
2007,07,15,17,36,23.90
2007,07,15,17,37,23.80
2007,07,15,17,38,23.80
2007,07,15,17,39,23.70
2007,07,15,17,40,23.70
2007,07,15,17,41,23.70
2007,07,15,17,42,23.70
2007,07,15,17,43,23.70
2007,07,15,17,44,23.70
2007,07,15,17,45,23.80
2007,07,15,17,46,23.80
2007,07,15,17,47,23.90
2007,07,15,17,48,23.90
2007,07,15,17,49,23.90
2007,07,15,17,50,24.00
2007,07,15,17,51,24.00
2007,07,15,17,52,24.00
2007,07,15,17,53,24.00
2007,07,15,17,54,24.10
2007,07,15,17,55,24.10
2007,07,15,17,56,24.10
2007,07,15,17,57,24.10
2007,07,15,17,58,24.10
2007,07,15,17,59,24.10
2007,07,15,18,00,24.10
2007,07,15,18,01,24.00
2007,07,15,18,02,23.90
2007,07,15,18,03,23.90
2007,07,15,18,04,23.90
2007,07,15,18,05,23.90
2007,07,15,18,06,23.90
2007,07,15,18,07,24.00